Moses Lake, WA

12:57 PM PDT on May 20, 2018 (GMT -0700)
Grant County International

Weather History for KMWH - June, 2012

Change the Weather History Date:

Tuesday, June 5, 2012

  Actual Average Record
Temperature  
Mean Temperature 57 °F 64 °F  
Max Temperature 63 °F 78 °F 100 °F (2016)
Min Temperature 51 °F 50 °F 39 °F (2017)
Degree Days  
Heating Degree Days 8 3  
Month to date heating degree days 16 15  
Since 1 June heating degree days 16 15  
Since 1 July heating degree days 5767 5842  
Cooling Degree Days 0 2  
Month to date cooling degree days 8 10  
Year to date cooling degree days 35 35  
Since 1 June cooling degree days 8 10  
Growing Degree Days 6 (Base 50)    
Moisture  
Dew Point 47 °F    
Average Humidity 63    
Maximum Humidity 89    
Minimum Humidity 36    
Precipitation  
Precipitation 0.22 in 0.03 in 1.14 in (1998)
Month to date precipitation 0.86 0.18  
Year to date precipitation 3.75 4.20  
Sea Level Pressure  
Sea Level Pressure 29.80 in    
Wind  
Wind Speed 12 mph (SSW)    
Max Wind Speed 23 mph    
Max Gust Speed 29 mph    
Visibility 7 miles    
Events Rain    
T = Trace of Precipitation, MM = Missing Value Source: NWS Daily Summary

Daily Weather History Graph

Daily Weather History Graph

Search for Another Location

Airport or City:

Astronomy

Jun. 05, 2012 Rise Set
Actual Time 5:02 AM PDT 8:49 PM PDT
Civil Twilight 4:23 AM PDT 9:28 PM PDT
Nautical Twilight 3:30 AM PDT 10:22 PM PDT
Astronomical Twilight 2:13 AM PDT 11:39 PM PDT
Moon 10:14 PM PDT (6/5) 6:22 AM PDT (6/5)
Length of Visible Light 17h 05m
Length of Day
15h 46m
Full, 97% of the Moon is Illuminated
Jun 5
Full
Jun 11
Last Quarter
Jun 19
New
Jun 26
First Quarter
Jul 3
Full

Hourly Weather History & Observations

Time (PDT) Temp. Dew Point Humidity Pressure Visibility Wind Dir Wind Speed Gust Speed Precip Events Conditions
12:05 AM 55.4 °F 53.6 °F 94% 29.69 in 5.0 mi SSE 8.1 mph - 0.03 in Rain Rain
12:17 AM 55.4 °F 53.6 °F 94% 29.70 in 4.0 mi SSW 8.1 mph - 0.09 in Rain Heavy Rain
12:25 AM 55.4 °F 53.6 °F 94% 29.70 in 4.0 mi South 13.8 mph 18.4 mph 0.13 in Rain Rain
12:38 AM 53.6 °F 51.8 °F 94% 29.70 in 8.0 mi South 15.0 mph - 0.15 in Rain Light Rain
12:44 AM 53.6 °F 51.8 °F 94% 29.70 in 9.0 mi South 16.1 mph - 0.15 in Rain Light Rain
12:52 AM 54.0 °F 51.1 °F 90% 29.68 in 10.0 mi South 11.5 mph - 0.15 in   Overcast
1:14 AM 53.6 °F 51.8 °F 94% 29.70 in 3.0 mi South 12.7 mph - 0.03 in Rain Rain
1:21 AM 53.6 °F 51.8 °F 94% 29.70 in 3.0 mi South 12.7 mph - 0.04 in Rain Light Rain
1:34 AM 53.6 °F 51.8 °F 94% 29.71 in 5.0 mi South 10.4 mph - 0.05 in Rain Light Rain
1:52 AM 54.0 °F 52.0 °F 93% 29.71 in 8.0 mi South 10.4 mph - 0.06 in Rain Light Rain
2:52 AM 53.1 °F 50.0 °F 89% 29.71 in 8.0 mi SSE 10.4 mph - 0.06 in Rain Light Rain
3:52 AM 52.0 °F 50.0 °F 93% 29.73 in 9.0 mi SSE 8.1 mph - 0.00 in Rain Light Rain
4:35 AM 51.8 °F 50.0 °F 94% 29.73 in 6.0 mi SSE 5.8 mph - 0.02 in   Overcast
4:47 AM 51.8 °F 50.0 °F 94% 29.73 in 10.0 mi SSE 5.8 mph - 0.02 in   Overcast
4:52 AM 52.0 °F 50.0 °F 93% 29.74 in 10.0 mi SSE 6.9 mph - 0.02 in   Overcast
5:01 AM 51.8 °F 50.0 °F 94% 29.74 in 10.0 mi SSE 5.8 mph - N/A   Overcast
5:08 AM 51.8 °F 50.0 °F 94% 29.74 in 9.0 mi SSE 4.6 mph - N/A   Overcast
5:25 AM 51.8 °F 50.0 °F 94% 29.74 in 4.0 mi SSE 5.8 mph - 0.00 in Rain Light Rain
5:35 AM 51.8 °F 51.8 °F 100% 29.74 in 2.5 mi SSE 5.8 mph - 0.01 in Rain Light Rain
5:43 AM 53.6 °F 51.8 °F 94% 29.75 in 4.0 mi SSE 4.6 mph - 0.02 in Rain Light Rain
5:52 AM 53.1 °F 51.1 °F 93% 29.75 in 8.0 mi SSE 5.8 mph - 0.02 in Rain Light Rain
6:24 AM 53.6 °F 51.8 °F 94% 29.77 in 2.5 mi SSE 4.6 mph - 0.01 in Rain Light Rain
6:32 AM 53.6 °F 51.8 °F 94% 29.77 in 4.0 mi South 5.8 mph - 0.01 in Rain Light Rain
6:42 AM 53.6 °F 51.8 °F 94% 29.77 in 2.5 mi South 6.9 mph - 0.02 in Rain Light Rain
6:49 AM 53.6 °F 51.8 °F 94% 29.77 in 2.5 mi SW 6.9 mph - 0.03 in Rain Rain
6:52 AM 53.1 °F 50.0 °F 89% 29.78 in 2.5 mi SW 8.1 mph - 0.04 in Rain Light Rain
6:58 AM 53.6 °F 48.2 °F 82% 29.77 in 3.0 mi WSW 9.2 mph - 0.01 in Rain Rain
7:52 AM 54.0 °F 48.9 °F 83% 29.79 in 10.0 mi WSW 9.2 mph - 0.02 in   Overcast
8:52 AM 53.6 °F 44.6 °F 72% 29.82 in 10.0 mi West 20.7 mph - N/A   Overcast
9:52 AM 55.0 °F 42.1 °F 62% 29.85 in 10.0 mi West 17.3 mph 24.2 mph N/A   Overcast
10:52 AM 55.0 °F 46.9 °F 74% 29.87 in 9.0 mi North 6.9 mph - N/A   Overcast
11:52 AM 57.9 °F 41.0 °F 53% 29.87 in 10.0 mi WNW 10.4 mph - N/A   Overcast
12:52 PM 59.0 °F 39.0 °F 48% 29.89 in 10.0 mi WSW 16.1 mph - N/A   Overcast
1:52 PM 61.0 °F 39.9 °F 46% 29.89 in 10.0 mi NNW 9.2 mph 17.3 mph N/A   Overcast
2:52 PM 60.1 °F 39.0 °F 46% 29.93 in 10.0 mi SW 10.4 mph - N/A   Overcast
3:52 PM 60.1 °F 39.0 °F 46% 29.94 in 10.0 mi WSW 5.8 mph - N/A   Overcast
4:52 PM 61.0 °F 37.9 °F 42% 29.93 in 10.0 mi West 10.4 mph - N/A   Overcast
5:52 PM 62.1 °F 36.0 °F 38% 29.93 in 10.0 mi WNW 20.7 mph 25.3 mph N/A   Overcast
6:52 PM 61.0 °F 36.0 °F 39% 29.95 in 10.0 mi West 16.1 mph - N/A   Overcast
7:52 PM 60.8 °F 35.6 °F 39% 29.96 in 10.0 mi West 10.4 mph - N/A   Overcast
8:52 PM 57.9 °F 35.1 °F 42% 29.99 in 10.0 mi West 13.8 mph - N/A   Overcast
9:52 PM 55.9 °F 36.0 °F 47% 29.99 in 10.0 mi West 17.3 mph - N/A   Overcast
10:52 PM 54.0 °F 36.0 °F 51% 29.99 in 10.0 mi West 19.6 mph - N/A   Overcast
11:52 PM 53.1 °F 36.0 °F 52% 29.99 in 10.0 mi WSW 15.0 mph - N/A   Clear